N5ZPR Weather Reports


Display with metric or nautical units.
time (UTC)temp
F
wind
direction
speed
MPH
gust
MPH
rain 1hr
in
rain 24hr
in
rain mn
in
humidity
%
barometer
mb
20260831034003 88 358 0.0 2.0 0.00 0.00 0.00 47 1010.8
20260831033003 88 186 1.0 2.0 0.00 0.00 0.00 46 1010.8
20260831032003 89 188 0.0 1.0 0.00 0.00 0.00 46 1010.8
20260831031004 90 188 0.0 1.0 0.00 0.00 0.00 45 1010.8
20260831030003 90 188 1.0 3.0 0.00 0.00 0.00 45 1010.8
20260831025004 90 185 0.0 0.0 0.00 0.00 0.00 44 1010.8
20260831024003 91 185 0.0 3.0 0.00 0.00 0.00 44 1010.8
20260831023004 91 188 0.0 0.0 0.00 0.00 0.00 43 1010.8
20260831022004 92 188 0.0 2.0 0.00 0.00 0.00 43 1010.8
20260831021003 92 186 0.0 1.0 0.00 0.00 0.00 42 1010.8
20260831020003 93 186 0.0 3.0 0.00 0.00 0.00 41 1010.8
20260831015004 94 190 0.0 1.0 0.00 0.00 0.00 40 1010.3
20260831014003 95 190 0.0 3.0 0.00 0.00 0.00 38 1010.3
20260831013003 94 183 1.0 3.0 0.00 0.00 0.00 38 1010.3
20260831012004 95 192 2.0 5.0 0.00 0.00 0.00 37 1010.3
20260831011004 96 160 1.0 6.0 0.00 0.00 0.00 36 1010.3
20260831010004 96 193 1.0 5.0 0.00 0.00 0.00 36 1010.1
20260831005004 97 164 1.0 6.0 0.00 0.00 0.00 34 1010.1
20260831004003 97 144 1.0 5.0 0.00 0.00 0.00 34 1010.1
20260831003004 98 175 3.0 5.0 0.00 0.00 0.00 33 1010.4
20260831002003 98 127 2.0 6.0 0.00 0.00 0.00 33 1010.4
20260831001004 98 168 2.0 8.0 0.00 0.00 0.00 32 1010.4
20260831000004 99 194 1.0 7.0 0.00 0.00 0.00 31 1010.4
20260830235004 98 158 2.0 9.0 0.00 0.00 0.00 31 1010.4
20260830234003 99 216 4.0 7.0 0.00 0.00 0.00 30 1010.4
20260830233003 99 157 2.0 9.0 0.00 0.00 0.00 29 1010.3
20260830232003 99 153 3.0 7.0 0.00 0.00 0.00 31 1010.3
20260830231003 100 166 2.0 9.0 0.00 0.00 0.00 29 1010.5
20260830225004 100 182 5.0 8.0 0.00 0.00 0.00 29 1010.5
20260830224003 100 124 3.0 7.0 0.00 0.00 0.00 29 1010.5
20260830223003 101 149 2.0 12.0 0.00 0.00 0.00 29 1010.6
20260830222003 102 124 4.0 9.0 0.00 0.00 0.00 28 1010.6
20260830221004 101 174 4.0 12.0 0.00 0.00 0.00 29 1010.6
20260830215004 102 180 4.0 10.0 0.00 0.00 0.00 27 1010.9
20260830214003 102 245 4.0 10.0 0.00 0.00 0.00 27 1010.9
20260830213003 102 114 3.0 9.0 0.00 0.00 0.00 26 1010.9
20260830211003 101 169 3.0 9.0 0.00 0.00 0.00 28 1011.3
20260830205004 102 182 3.0 9.0 0.00 0.00 0.00 29 1011.3
20260830204003 102 124 4.0 9.0 0.00 0.00 0.00 28 1011.9
20260830203004 102 118 4.0 12.0 0.00 0.00 0.00 27 1011.9
20260830201003 102 167 3.0 8.0 0.00 0.00 0.00 28 1011.9
20260830200004 101 125 3.0 9.0 0.00 0.00 0.00 30 1012.0
20260830195003 101 129 5.0 10.0 0.00 0.00 0.00 30 1012.2
20260830194003 102 131 6.0 10.0 0.00 0.00 0.00 29 1012.2
20260830193003 101 191 5.0 10.0 0.00 0.00 0.00 30 1012.4
20260830192003 101 187 3.0 9.0 0.00 0.00 0.00 30 1012.7
20260830190003 100 171 5.0 12.0 0.00 0.00 0.00 32 1012.7
20260830185003 101 202 2.0 10.0 0.00 0.00 0.00 32 1013.1
20260830184003 100 204 3.0 12.0 0.00 0.00 0.00 34 1013.1
20260830182004 99 177 5.0 9.0 0.00 0.00 0.00 34 1013.3
20260830181003 99 147 6.0 10.0 0.00 0.00 0.00 34 1013.9
20260830180003 99 165 5.0 10.0 0.00 0.00 0.00 34 1013.9
20260830174003 99 180 3.0 9.0 0.00 0.00 0.00 34 1013.9
20260830173003 98 174 5.0 8.0 0.00 0.00 0.00 36 1014.4
20260830172005 97 94 3.0 12.0 0.00 0.00 0.00 36 1014.4
20260830170004 97 200 6.0 10.0 0.00 0.00 0.00 35 1014.4
20260830165003 97 225 5.0 9.0 0.00 0.00 0.00 39 1014.5
20260830164003 96 123 3.0 12.0 0.00 0.00 0.00 41 1014.7
20260830163003 96 169 5.0 12.0 0.00 0.00 0.00 42 1014.7
20260830162004 95 125 4.0 10.0 0.00 0.00 0.00 43 1014.7
20260830161004 95 147 3.0 8.0 0.00 0.00 0.00 44 1014.8
20260830160004 94 217 3.0 10.0 0.00 0.00 0.00 46 1014.8
20260830155003 93 172 4.0 9.0 0.00 0.00 0.00 47 1014.7
20260830154004 92 230 3.0 7.0 0.00 0.00 0.00 50 1014.7
20260830153004 91 162 3.0 9.0 0.00 0.00 0.00 50 1014.7
20260830152004 91 218 2.0 7.0 0.00 0.00 0.00 52 1014.7
20260830151004 90 168 5.0 8.0 0.00 0.00 0.00 55 1014.7
20260830150004 89 166 2.0 6.0 0.00 0.00 0.00 57 1014.7
20260830145003 88 182 3.0 6.0 0.00 0.00 0.00 59 1014.7
20260830144004 87 182 3.0 5.0 0.00 0.00 0.00 62 1014.7
20260830143003 85 149 2.0 6.0 0.00 0.00 0.00 64 1014.7
20260830142003 85 0 2.0 6.0 0.00 0.00 0.00 65 1014.7
20260830141003 84 0 2.0 7.0 0.00 0.00 0.00 68 1014.7
20260830135004 82 0 1.0 5.0 0.00 0.00 0.00 70 1014.0
20260830134003 82 0 1.0 3.0 0.00 0.00 0.00 71 1014.0
20260830133004 80 0 1.0 3.0 0.00 0.00 0.00 75 1014.0
20260830132004 80 0 1.0 2.0 0.00 0.00 0.00 75 1014.0
20260830131004 80 0 1.0 2.0 0.00 0.00 0.00 75 1014.0
20260830130004 80 0 1.0 5.0 0.00 0.00 0.00 75 1014.0
20260830124004 78 0 0.0 0.0 0.00 0.00 0.00 77 1013.1
20260830123004 78 0 0.0 1.0 0.00 0.00 0.00 76 1013.1
20260830122004 78 0 0.0 2.0 0.00 0.00 0.00 76 1013.1
20260830121003 79 0 0.0 0.0 0.00 0.00 0.00 74 1013.1
20260830115003 80 0 0.0 3.0 0.00 0.00 0.00 72 1013.1
20260830114004 79 0 0.0 2.0 0.00 0.00 0.00 72 1013.1
20260830112003 81 0 0.0 5.0 0.00 0.00 0.00 69 1012.9
20260830110004 81 0 1.0 5.0 0.00 0.00 0.00 69 1012.7
20260830105003 81 0 2.0 5.0 0.00 0.00 0.00 69 1012.7
20260830103003 82 0 2.0 5.0 0.00 0.00 0.00 66 1012.7
20260830102004 83 0 1.0 5.0 0.00 0.00 0.00 65 1012.5
20260830101003 83 0 2.0 5.0 0.00 0.00 0.00 65 1012.5
20260830100004 81 0 2.0 5.0 0.00 0.00 0.00 67 1012.5
20260830095004 82 0 2.0 5.0 0.00 0.00 0.00 66 1012.5
20260830094004 82 0 1.0 3.0 0.00 0.00 0.00 65 1012.5
20260830092004 83 0 1.0 5.0 0.00 0.00 0.00 64 1012.5
20260830091003 83 0 1.0 6.0 0.00 0.00 0.00 63 1012.5
20260830090004 83 0 1.0 3.0 0.00 0.00 0.00 63 1012.5
20260830085003 83 0 2.0 5.0 0.00 0.00 0.00 62 1012.5
20260830083004 83 0 1.0 3.0 0.00 0.00 0.00 62 1012.5
20260830082003 83 0 1.0 7.0 0.00 0.00 0.00 62 1012.5
20260830081004 83 0 1.0 6.0 0.00 0.00 0.00 61 1012.5
20260830075003 83 0 2.0 5.0 0.00 0.00 0.00 59 1012.5
20260830074003 83 0 1.0 5.0 0.00 0.00 0.00 58 1012.7
20260830073003 83 0 2.0 6.0 0.00 0.00 0.00 57 1012.7
20260830072003 83 0 2.0 6.0 0.00 0.00 0.00 57 1012.7
20260830071004 84 0 1.0 3.0 0.00 0.00 0.00 56 1012.7
20260830070003 84 0 1.0 5.0 0.00 0.00 0.00 56 1012.7
20260830064004 84 0 1.0 2.0 0.00 0.00 0.00 54 1012.7
20260830063004 85 0 1.0 2.0 0.00 0.00 0.00 53 1012.7
20260830062004 86 0 0.0 5.0 0.00 0.00 0.00 53 1012.7
20260830061004 85 0 0.0 5.0 0.00 0.00 0.00 54 1012.8
20260830060004 85 0 0.0 1.0 0.00 0.00 0.00 53 1012.8
20260830055003 85 0 1.0 2.0 0.00 0.00 0.00 52 1012.8
20260830054004 86 0 0.0 3.0 0.00 0.00 0.00 51 1012.7
20260830053004 86 0 0.0 3.0 0.00 0.00 0.00 51 1012.7
20260830052004 86 0 1.0 3.0 0.00 0.00 0.00 49 1012.6
20260830051003 87 0 1.0 5.0 0.00 0.00 0.00 49 1012.6
20260830050004 87 0 1.0 3.0 0.00 0.00 0.00 48 1012.7
20260830044003 87 86 0.0 2.0 0.00 0.00 0.00 47 1012.7
20260830043004 87 101 0.0 2.0 0.00 0.00 0.00 47 1012.7
20260830041004 88 101 0.0 1.0 0.00 0.00 0.00 45 1012.6
20260830035003 89 100 0.0 2.0 0.00 0.00 0.00 44 1012.4